• In Uzbekistan
  • List of Countries
  • For 7 days
  • Water Temperature
  • Satellite Maps
  • Weather Map
  • Weather Widgets
  • user-avatar
    Login

    Hourly Weather Arkadia

    Today, 25 September, Monday

    Time Temperature Precipitation Wind Pressure Humidity
    00:00 +13°C° 0 mm 1 mps 667 mmHg 73%
    01:00 +13°C° 0 mm 1 mps 666 mmHg 74%
    02:00 +13°C° 0 mm 1 mps 666 mmHg 74%
    03:00 +12°C° 0 mm 1 mps 666 mmHg 75%
    04:00 +12°C° 0 mm 1 mps 666 mmHg 76%
    05:00 +13°C° 0 mm 1 mps 666 mmHg 72%
    06:00 +14°C° 0 mm 1 mps 666 mmHg 68%
    07:00 +15°C° 0 mm 1 mps 666 mmHg 64%
    08:00 +16°C° 0 mm 1 mps 667 mmHg 57%
    09:00 +19°C° 0 mm 1 mps 667 mmHg 50%
    10:00 +19°C° 0 mm 2 mps 668 mmHg 43%
    11:00 +19°C° 0 mm 2 mps 668 mmHg 44%
    12:00 +19°C° 0 mm 2 mps 667 mmHg 44%
    13:00 +19°C° 0 mm 2 mps 667 mmHg 45%
    14:00 +19°C° 0.3 mm 2 mps 667 mmHg 48%
    15:00 +18°C° 0.3 mm 2 mps 667 mmHg 51%
    16:00 +19°C° 0.3 mm 1 mps 667 mmHg 54%
    17:00 +16°C° 0.2 mm 1 mps 667 mmHg 59%
    18:00 +15°C° 0.2 mm 1 mps 666 mmHg 65%
    19:00 +14°C° 0.2 mm 1 mps 666 mmHg 71%
    20:00 +14°C° 0.1 mm 1 mps 666 mmHg 74%
    21:00 +13°C° 0.1 mm 1 mps 666 mmHg 76%
    22:00 +13°C° 0.1 mm 1 mps 666 mmHg 79%
    23:00 +12°C° 0 mm 1 mps 666 mmHg 80%

    Tomorrow, 26 September, Tuesday

    Time Temperature Precipitation Wind Pressure Humidity
    00:00 +12°C° 0 mm 1 mps 666 mmHg 81%
    01:00 +12°C° 0 mm 1 mps 665 mmHg 82%
    02:00 +11°C° 0 mm 1 mps 665 mmHg 83%
    03:00 +11°C° 0 mm 1 mps 665 mmHg 84%
    04:00 +11°C° 0 mm 1 mps 665 mmHg 85%
    05:00 +12°C° 0 mm 1 mps 665 mmHg 80%
    06:00 +13°C° 0 mm 1 mps 666 mmHg 76%
    07:00 +14°C° 0 mm 1 mps 666 mmHg 71%
    08:00 +16°C° 0 mm 1 mps 667 mmHg 63%
    09:00 +18°C° 0 mm 1 mps 667 mmHg 55%
    10:00 +20°C° 0 mm 1 mps 668 mmHg 47%
    11:00 +19°C° 0 mm 2 mps 668 mmHg 45%
    12:00 +20°C° 0 mm 2 mps 668 mmHg 44%
    13:00 +20°C° 0 mm 2 mps 668 mmHg 43%
    14:00 +19°C° 0.1 mm 2 mps 668 mmHg 47%
    15:00 +18°C° 0.1 mm 2 mps 668 mmHg 50%
    16:00 +18°C° 0.1 mm 2 mps 667 mmHg 54%
    17:00 +17°C° 0.1 mm 2 mps 667 mmHg 60%
    18:00 +15°C° 0.1 mm 1 mps 667 mmHg 66%
    19:00 +14°C° 0.1 mm 1 mps 667 mmHg 72%
    20:00 +14°C° 0 mm 1 mps 667 mmHg 74%
    21:00 +13°C° 0 mm 1 mps 667 mmHg 76%
    22:00 +13°C° 0 mm 1 mps 667 mmHg 78%
    23:00 +13°C° 0 mm 1 mps 667 mmHg 80%

    Day after tomorrow, 27 September, Wednesday

    Time Temperature Precipitation Wind Pressure Humidity
    00:00 +12°C° 0 mm 1 mps 667 mmHg 81%
    01:00 +12°C° 0 mm 1 mps 667 mmHg 82%
    02:00 +12°C° 0 mm 1 mps 667 mmHg 82%
    03:00 +11°C° 0 mm 1 mps 667 mmHg 82%
    04:00 +11°C° 0 mm 1 mps 667 mmHg 83%
    05:00 +12°C° 0 mm 1 mps 667 mmHg 78%
    06:00 +13°C° 0 mm 1 mps 668 mmHg 73%
    07:00 +14°C° 0 mm 1 mps 669 mmHg 68%
    08:00 +16°C° 0 mm 1 mps 669 mmHg 60%
    09:00 +19°C° 0 mm 1 mps 670 mmHg 53%
    10:00 +21°C° 0 mm 1 mps 671 mmHg 45%
    11:00 +20°C° 0 mm 2 mps 670 mmHg 44%
    12:00 +20°C° 0 mm 2 mps 670 mmHg 42%
    13:00 +21°C° 0 mm 2 mps 670 mmHg 41%
    14:00 +20°C° 0 mm 2 mps 670 mmHg 45%
    15:00 +19°C° 0 mm 2 mps 670 mmHg 49%
    16:00 +18°C° 0 mm 2 mps 670 mmHg 53%
    17:00 +17°C° 0.1 mm 2 mps 669 mmHg 59%
    18:00 +16°C° 0.1 mm 1 mps 669 mmHg 64%
    19:00 +15°C° 0.1 mm 1 mps 669 mmHg 69%
    20:00 +15°C° 0 mm 1 mps 669 mmHg 71%
    21:00 +14°C° 0 mm 1 mps 669 mmHg 73%
    22:00 +14°C° 0 mm 1 mps 669 mmHg 76%
    23:00 +13°C° 0 mm 1 mps 669 mmHg 77%

    28 September, Thursday

    Time Temperature Precipitation Wind Pressure Humidity
    00:00 +13°C° 0 mm 1 mps 669 mmHg 78%
    01:00 +12°C° 0 mm 1 mps 669 mmHg 79%
    02:00 +12°C° 0 mm 1 mps 668 mmHg 81%
    03:00 +12°C° 0 mm 1 mps 668 mmHg 83%
    04:00 +12°C° 0 mm 1 mps 668 mmHg 84%
    05:00 +12°C° 0 mm 1 mps 668 mmHg 81%
    06:00 +13°C° 0 mm 1 mps 669 mmHg 77%
    07:00 +14°C° 0 mm 1 mps 669 mmHg 74%
    08:00 +16°C° 0.2 mm 1 mps 669 mmHg 67%
    09:00 +17°C° 0.2 mm 2 mps 670 mmHg 59%
    10:00 +19°C° 0.2 mm 2 mps 671 mmHg 52%
    11:00 +18°C° 0.9 mm 2 mps 670 mmHg 55%
    12:00 +18°C° 0.9 mm 2 mps 670 mmHg 58%
    13:00 +17°C° 0.9 mm 3 mps 670 mmHg 60%
    14:00 +16°C° 1.7 mm 3 mps 669 mmHg 65%
    15:00 +16°C° 1.7 mm 2 mps 669 mmHg 69%
    16:00 +15°C° 1.7 mm 2 mps 669 mmHg 74%
    17:00 +14°C° 0.6 mm 2 mps 669 mmHg 75%
    18:00 +13°C° 0.6 mm 2 mps 669 mmHg 77%
    19:00 +13°C° 0.6 mm 2 mps 669 mmHg 79%
    20:00 +13°C° 0.1 mm 2 mps 669 mmHg 80%
    21:00 +12°C° 0.1 mm 2 mps 668 mmHg 80%
    22:00 +12°C° 0.1 mm 2 mps 668 mmHg 80%
    23:00 +12°C° 0 mm 2 mps 668 mmHg 81%

    29 September, Friday

    Time Temperature Precipitation Wind Pressure Humidity
    00:00 +10°C° 0 mm 2 mps 668 mmHg 81%
    01:00 +10°C° 0 mm 2 mps 668 mmHg 82%
    02:00 +10°C° 0 mm 2 mps 667 mmHg 82%
    03:00 +10°C° 0 mm 2 mps 667 mmHg 83%
    04:00 +10°C° 0 mm 2 mps 667 mmHg 84%
    05:00 +10°C° 0 mm 2 mps 667 mmHg 82%
    06:00 +10°C° 0 mm 2 mps 667 mmHg 81%
    07:00 +12°C° 0 mm 2 mps 668 mmHg 79%
    08:00 +13°C° 0 mm 2 mps 668 mmHg 74%
    09:00 +14°C° 0 mm 2 mps 668 mmHg 69%
    10:00 +15°C° 0 mm 2 mps 668 mmHg 63%
    11:00 +15°C° 0 mm 2 mps 668 mmHg 61%
    12:00 +15°C° 0 mm 2 mps 668 mmHg 60%
    13:00 +15°C° 0 mm 2 mps 668 mmHg 58%
    14:00 +15°C° 0.2 mm 2 mps 668 mmHg 59%
    15:00 +14°C° 0.2 mm 2 mps 668 mmHg 61%
    16:00 +14°C° 0.2 mm 2 mps 667 mmHg 63%
    17:00 +13°C° 0.1 mm 2 mps 667 mmHg 66%
    18:00 +12°C° 0.1 mm 2 mps 667 mmHg 70%
    19:00 +12°C° 0.1 mm 2 mps 667 mmHg 73%
    20:00 +10°C° 0 mm 2 mps 667 mmHg 74%
    21:00 +10°C° 0 mm 2 mps 667 mmHg 76%
    22:00 +10°C° 0 mm 2 mps 667 mmHg 77%
    23:00 +9°C° 0 mm 2 mps 667 mmHg 77%

    30 September, Saturday

    Time Temperature Precipitation Wind Pressure Humidity
    00:00 +9°C° 0 mm 2 mps 666 mmHg 78%
    01:00 +9°C° 0 mm 2 mps 666 mmHg 78%
    02:00 +9°C° 0 mm 2 mps 666 mmHg 78%
    03:00 +9°C° 0 mm 2 mps 666 mmHg 79%
    04:00 +9°C° 0 mm 2 mps 666 mmHg 79%
    05:00 +9°C° 0.1 mm 2 mps 666 mmHg 78%
    06:00 +10°C° 0.1 mm 2 mps 666 mmHg 76%
    07:00 +10°C° 0.1 mm 2 mps 666 mmHg 75%
    08:00 +12°C° 0.1 mm 2 mps 667 mmHg 69%
    09:00 +14°C° 0.1 mm 2 mps 667 mmHg 63%
    10:00 +15°C° 0.1 mm 2 mps 667 mmHg 57%
    11:00 +15°C° 0.1 mm 2 mps 667 mmHg 57%
    12:00 +15°C° 0.1 mm 2 mps 667 mmHg 58%
    13:00 +15°C° 0.1 mm 2 mps 667 mmHg 58%
    14:00 +14°C° 0.3 mm 1 mps 667 mmHg 60%
    15:00 +14°C° 0.3 mm 1 mps 667 mmHg 62%
    16:00 +14°C° 0.3 mm 1 mps 666 mmHg 64%
    17:00 +13°C° 0.2 mm 1 mps 667 mmHg 67%
    18:00 +12°C° 0.2 mm 1 mps 667 mmHg 70%
    19:00 +12°C° 0.2 mm 1 mps 667 mmHg 72%
    20:00 +11°C° 0 mm 1 mps 667 mmHg 74%
    21:00 +11°C° 0 mm 1 mps 667 mmHg 76%
    22:00 +11°C° 0 mm 1 mps 667 mmHg 78%
    23:00 +10°C° 0 mm 1 mps 666 mmHg 79%
    Show more